TimeEDT,TemperatureF,Dew PointF,Humidity,Sea Level PressureIn,VisibilityMPH,Wind Direction,Wind SpeedMPH,Gust SpeedMPH,PrecipitationIn,Events,Conditions,WindDirDegrees,DateUTC
1:52 AM,44.1,34.0,68,30.27,10.0,South,4.6,-,0.00,Rain,Light Rain,170,2012-10-14 05:52:00
2:52 AM,43.0,36.0,76,30.26,10.0,Calm,Calm,-,0.01,Rain,Light Rain,0,2012-10-14 06:52:00
3:52 AM,43.0,36.0,76,30.22,10.0,South,3.5,-,0.00,Rain,Light Rain,190,2012-10-14 07:52:00
4:01 AM,42.8,35.6,76,30.18,10.0,South,4.6,-,0.00,Rain,Light Rain,180,2012-10-14 08:01:00
4:09 AM,42.8,37.4,81,30.19,9.0,South,3.5,-,0.00,Rain,Light Rain,180,2012-10-14 08:09:00
4:52 AM,43.0,37.9,82,30.20,4.0,South,6.9,-,0.09,Rain,Rain,190,2012-10-14 08:52:00
5:23 AM,44.6,39.2,81,30.15,2.5,South,8.1,-,0.11,Rain,Heavy Rain,190,2012-10-14 09:23:00
5:30 AM,44.6,39.2,81,30.15,3.0,South,8.1,-,0.14,Rain,Heavy Rain,190,2012-10-14 09:30:00
5:52 AM,46.0,41.0,83,30.17,5.0,SSW,9.2,-,0.19,Rain,Rain,200,2012-10-14 09:52:00
6:12 AM,46.4,41.0,81,30.12,4.0,South,10.4,-,0.05,Rain,Rain,190,2012-10-14 10:12:00
6:30 AM,46.4,41.0,81,30.11,6.0,SSW,9.2,-,0.08,Rain,Rain,200,2012-10-14 10:30:00
6:52 AM,46.9,42.1,83,30.15,4.0,SSW,10.4,-,0.12,Rain,Rain,210,2012-10-14 10:52:00
6:59 AM,46.4,42.8,87,30.11,5.0,SSW,9.2,-,0.01,Rain,Light Rain,210,2012-10-14 10:59:00
7:09 AM,46.4,42.8,87,30.12,5.0,SSW,8.1,-,0.03,Rain,Rain,210,2012-10-14 11:09:00
7:23 AM,46.4,42.8,87,30.11,9.0,SSW,8.1,17.3,0.04,Rain,Light Rain,210,2012-10-14 11:23:00
7:49 AM,48.2,42.8,82,30.11,1.8,SSW,8.1,-,0.07,Rain,Heavy Rain,200,2012-10-14 11:49:00
7:52 AM,48.0,43.0,83,30.15,2.0,SW,9.2,-,0.07,Rain,Light Rain,220,2012-10-14 11:52:00
8:02 AM,48.2,42.8,82,30.11,5.0,SSW,8.1,18.4,0.01,Rain,Light Rain,210,2012-10-14 12:02:00
8:52 AM,48.9,43.0,80,30.14,10.0,SSW,9.2,17.3,0.03,Rain,Light Rain,210,2012-10-14 12:52:00
9:52 AM,50.0,45.0,83,30.13,7.0,SSW,8.1,-,0.01,Rain,Light Rain,210,2012-10-14 13:52:00
10:52 AM,51.1,45.0,80,30.12,10.0,SSW,9.2,17.3,0.01,Rain,Light Rain,210,2012-10-14 14:52:00
11:52 AM,51.1,46.0,83,30.12,10.0,SW,9.2,-,0.00,Rain,Light Rain,220,2012-10-14 15:52:00
12:52 PM,52.0,46.9,83,30.10,9.0,SSW,8.1,18.4,0.03,Rain,Light Rain,210,2012-10-14 16:52:00
1:52 PM,53.1,48.0,83,30.08,10.0,SW,6.9,-,0.00,,Overcast,220,2012-10-14 17:52:00
2:52 PM,55.0,50.0,83,30.05,10.0,SSW,8.1,-,N/A,,Overcast,210,2012-10-14 18:52:00
3:12 PM,57.2,50.0,77,30.02,10.0,SSW,6.9,-,N/A,,Overcast,210,2012-10-14 19:12:00
3:33 PM,57.2,50.0,77,30.01,10.0,SSW,8.1,-,N/A,,Overcast,210,2012-10-14 19:33:00
4:31 PM,60.8,50.0,68,30.00,10.0,SSW,6.9,-,N/A,,Scattered Clouds,200,2012-10-14 20:31:00
4:52 PM,60.1,50.0,69,30.02,10.0,SSW,6.9,-,N/A,,Clear,210,2012-10-14 20:52:00
5:52 PM,59.0,50.0,72,30.01,10.0,South,3.5,-,N/A,,Clear,190,2012-10-14 21:52:00
6:52 PM,59.0,50.0,72,30.01,10.0,SSW,4.6,-,N/A,,Clear,200,2012-10-14 22:52:00
7:52 PM,59.0,48.9,69,30.00,10.0,SSW,9.2,-,N/A,,Clear,200,2012-10-14 23:52:00
8:52 PM,57.0,48.9,74,29.99,10.0,SW,4.6,-,N/A,,Clear,220,2012-10-15 00:52:00
9:52 PM,57.9,50.0,75,29.98,10.0,SSW,8.1,-,N/A,,Clear,200,2012-10-15 01:52:00
10:52 PM,59.0,50.0,72,29.97,10.0,SSW,5.8,-,N/A,,Clear,210,2012-10-15 02:52:00
11:52 PM,59.0,51.1,75,29.94,10.0,SSW,5.8,-,N/A,,Clear,200,2012-10-15 03:52:00